EW3910 Camano City WA US current weather conditions

sailwx.info

Wind from 255 at 0 knots gusting 5

Air temperature 11.7° C
Dewpoint 9.9° C

Last reported at 2020-Jul-13 14:03 UTC.
Time now 2020-Jul-13 14:28 UTC

Location: N 48°13' W 122°32'.
View on Google Maps.

See reports from other nearby stations

  
Tides and Currents Weather Stations Pressure Air Temp Water Temp Dewpoint Dewpoint Depression Visibility Wind Speed Wind Dir Waves Ship Positions
date/time (UTC)wind fromknots sea level pressurealtimeterstation pressurevisibilityair tempwater tempwave heightnotes
2020-Jul-13 14:03 255 0 gusting 5 11.7
2020-Jul-13 13:52 302 0 gusting 3 11.7
2020-Jul-13 13:43 277 11.7
2020-Jul-13 13:32 281 11.7
2020-Jul-13 13:23 294 0 gusting 1 11.7
2020-Jul-13 13:13 308 0 gusting 1 11.7
2020-Jul-13 13:03 282 0 gusting 2 11.7
2020-Jul-13 12:53 262 1 gusting 3 11.7
2020-Jul-13 12:43 299 0 gusting 6 11.7
2020-Jul-13 12:32 308 1 gusting 6 11.7
2020-Jul-13 12:23 285 0 gusting 5 11.7
2020-Jul-13 12:12 282 0 gusting 4 11.7
2020-Jul-13 12:03 275 0 gusting 4 11.7
2020-Jul-13 11:53 252 11.7
2020-Jul-13 11:43 289 0 gusting 4 11.7
2020-Jul-13 11:33 298 0 gusting 4 11.7
2020-Jul-13 11:23 289 1 gusting 5 11.7
2020-Jul-13 11:13 290 1 gusting 5 11.7
2020-Jul-13 11:03 285 0 gusting 3 11.7
2020-Jul-13 10:53 293 0 gusting 3 11.7
2020-Jul-13 10:42 298 0 gusting 5 11.7
2020-Jul-13 10:32 317 1 gusting 6 11.7
2020-Jul-13 10:22 262 1 gusting 6 11.7
2020-Jul-13 10:12 252 0 gusting 5 11.7
2020-Jul-13 10:02 274 12.2
2020-Jul-13 09:52 333 12.2
2020-Jul-13 09:42 304 12.2
2020-Jul-13 09:31 331 12.2
2020-Jul-13 09:21 313 0 gusting 5 12.2
2020-Jul-13 09:11 306 12.2
2020-Jul-13 09:01 304 12.2
2020-Jul-13 08:51 308 12.2
2020-Jul-13 08:41 310 12.2
2020-Jul-13 08:31 298 12.2
2020-Jul-13 08:21 284 1 gusting 7 12.2
2020-Jul-13 08:11 304 0 gusting 6 12.2
2020-Jul-13 08:00 307 12.2
2020-Jul-13 07:50 337 12.2
2020-Jul-13 07:40 322 12.2
2020-Jul-13 07:30 223 0 gusting 6 12.8
2020-Jul-13 07:19 305 12.8
2020-Jul-13 07:10 319 12.8
2020-Jul-13 07:00 010 12.8
2020-Jul-13 06:50 304 12.8
2020-Jul-13 06:40 316 12.8
2020-Jul-13 06:30 314 0 gusting 6 12.2
2020-Jul-13 06:20 316 0 gusting 6 12.2
2020-Jul-13 06:10 302 12.2
2020-Jul-13 06:00 031 12.2
2020-Jul-13 05:50 100 12.2
2020-Jul-13 05:40 100 12.2
2020-Jul-13 05:30 100 12.2
2020-Jul-13 05:20 100 12.2
2020-Jul-13 05:10 254 12.2
2020-Jul-13 05:00 254 12.8
2020-Jul-13 04:50 277 12.8
2020-Jul-13 04:40 277 12.8
2020-Jul-13 04:30 277 13.3
2020-Jul-13 04:20 277 13.9
2020-Jul-13 04:10 277 13.9
2020-Jul-13 03:59 277 14.4
2020-Jul-13 03:49 267 15.0
2020-Jul-13 03:39 308 0 gusting 6 15.0
2020-Jul-13 03:29 298 1 gusting 9 15.6
2020-Jul-13 03:19 296 4 gusting 9 16.1
2020-Jul-13 03:09 306 3 gusting 7 16.7
2020-Jul-13 02:59 285 0 gusting 5 16.7
2020-Jul-13 02:48 015 16.7
2020-Jul-13 02:38 005 1 gusting 6 16.7
2020-Jul-13 02:28 321 1 gusting 6 17.2
2020-Jul-13 02:18 320 1 gusting 6 17.2
2020-Jul-13 02:07 287 3 gusting 8 17.8
2020-Jul-13 01:57 298 4 gusting 8 18.3
2020-Jul-13 01:47 326 3 gusting 6 19.4
2020-Jul-13 01:37 283 2 gusting 6 20.0
2020-Jul-13 01:27 296 1 gusting 6 20.6
2020-Jul-13 01:17 314 1 gusting 6 20.6
2020-Jul-13 01:07 316 2 gusting 6 20.6
2020-Jul-13 00:57 311 2 gusting 9 20.6
2020-Jul-13 00:47 337 2 gusting 10 20.6
2020-Jul-13 00:37 329 5 gusting 10 20.6
2020-Jul-13 00:27 301 2 gusting 8 20.6
2020-Jul-13 00:17 339 2 gusting 6 20.0
2020-Jul-13 00:08 285 2 gusting 6 19.4
2020-Jul-12 23:58 288 1 gusting 5 19.4
2020-Jul-12 23:47 249 2 gusting 7 19.4
2020-Jul-12 23:37 287 3 gusting 7 20.0
2020-Jul-12 23:27 304 3 gusting 8 20.0
2020-Jul-12 23:17 296 4 gusting 8 20.6
2020-Jul-12 23:07 314 2 gusting 8 20.6
2020-Jul-12 22:57 306 5 gusting 9 20.6
2020-Jul-12 22:47 316 3 gusting 11 20.6
2020-Jul-12 22:37 289 5 gusting 11 20.0
2020-Jul-12 22:27 304 5 gusting 9 19.4
2020-Jul-12 22:17 313 4 gusting 10 19.4
2020-Jul-12 22:07 328 4 gusting 10 19.4
2020-Jul-12 21:57 291 6 gusting 10 18.9
2020-Jul-12 21:46 280 6 gusting 10 18.3
2020-Jul-12 21:36 290 6 gusting 10 18.3
2020-Jul-12 21:26 313 6 gusting 13 18.3
2020-Jul-12 21:16 303 6 gusting 13 18.3
2020-Jul-12 21:06 302 5 gusting 8 18.3
2020-Jul-12 20:55 312 5 gusting 10 18.3
2020-Jul-12 20:45 312 5 gusting 10 18.3
2020-Jul-12 20:35 315 4 gusting 9 18.3
2020-Jul-12 20:26 308 4 gusting 9 19.4
2020-Jul-12 20:16 285 2 gusting 9 20.0
2020-Jul-12 20:05 327 1 gusting 6 20.0
2020-Jul-12 19:56 318 1 gusting 6 20.0
2020-Jul-12 19:45 306 2 gusting 6 19.4
2020-Jul-12 19:35 310 2 gusting 6 18.9
2020-Jul-12 19:25 308 3 gusting 10 18.3
2020-Jul-12 19:15 291 6 gusting 10 17.8
2020-Jul-12 19:05 308 5 gusting 9 17.2
2020-Jul-12 18:55 287 4 gusting 9 17.2
2020-Jul-12 18:45 332 5 gusting 11 17.2
2020-Jul-12 18:35 270 6 gusting 12 17.2
2020-Jul-12 18:24 273 6 gusting 12 17.2
2020-Jul-12 18:15 283 6 gusting 10 16.7
2020-Jul-12 18:04 284 6 gusting 10 16.7
2020-Jul-12 17:55 294 6 gusting 10 16.7
2020-Jul-12 17:44 282 6 gusting 10 16.7
2020-Jul-12 17:34 311 6 gusting 9 16.1
2020-Jul-12 17:24 312 3 gusting 8 15.6
2020-Jul-12 17:14 341 2 gusting 8 15.0
2020-Jul-12 17:04 298 4 gusting 8 14.4
2020-Jul-12 16:55 298 3 gusting 7 15.0
2020-Jul-12 16:44 331 1 gusting 6 15.0
2020-Jul-12 16:34 262 3 gusting 7 14.4
2020-Jul-12 16:24 310 3 gusting 7 14.4
2020-Jul-12 16:15 302 2 gusting 6 14.4
2020-Jul-12 16:04 279 0 gusting 7 14.4
2020-Jul-12 15:54 310 1 gusting 7 14.4
2020-Jul-12 15:44 298 2 gusting 8 14.4
2020-Jul-12 15:34 306 5 gusting 12 14.4
2020-Jul-12 15:23 321 6 gusting 12 14.4
2020-Jul-12 15:13 316 2 gusting 8 14.4
2020-Jul-12 15:03 314 2 gusting 8 14.4
2020-Jul-12 14:52 306 4 gusting 8 14.4
2020-Jul-12 14:42 320 1 gusting 6 14.4
2020-Jul-12 14:32 294 13.9
2020-Jul-12 14:22 279 0 gusting 6 13.9
2020-Jul-12 14:11 279 1 gusting 6 13.9
2020-Jul-12 14:01 269 1 gusting 7 13.9
2020-Jul-12 13:51 285 0 gusting 6 13.3
2020-Jul-12 13:42 185 0 13.3
2020-Jul-12 13:31 268 0 gusting 5 13.3
2020-Jul-12 13:21 312 13.3
2020-Jul-12 13:11 294 0 gusting 4 13.3
2020-Jul-12 13:01 276 13.3
2020-Jul-12 12:50 300 13.3
2020-Jul-12 12:40 300 13.3
2020-Jul-12 12:31 296 13.3
2020-Jul-12 12:21 298 0 gusting 2 13.3
2020-Jul-12 12:11 308 0 gusting 4 13.3
2020-Jul-12 12:00 291 12.8
2020-Jul-12 11:50 106 13.3
2020-Jul-12 11:40 331 13.3
2020-Jul-12 11:30 331 12.8
2020-Jul-12 11:20 266 1 gusting 2 13.3
2020-Jul-12 11:11 304 1 gusting 5 13.3
2020-Jul-12 11:01 001 12.8
2020-Jul-12 10:50 286 13.3
2020-Jul-12 10:40 286 13.3
2020-Jul-12 10:30 286 13.3
2020-Jul-12 10:20 287 13.3
2020-Jul-12 10:10 286 13.3
2020-Jul-12 09:59 281 13.3
2020-Jul-12 09:49 283 13.3
2020-Jul-12 09:40 253 13.9
2020-Jul-12 09:30 253 13.9
2020-Jul-12 09:19 188 0 gusting 5 15.0
2020-Jul-12 09:10 171 15.6
2020-Jul-12 08:59 171 15.6
2020-Jul-12 08:49 265 15.6
2020-Jul-12 08:39 261 15.6
2020-Jul-12 08:29 261 15.6
2020-Jul-12 08:18 261 15.6
2020-Jul-12 08:08 264 15.6
2020-Jul-12 07:58 265 15.6
2020-Jul-12 07:48 265 15.6
2020-Jul-12 07:38 238 15.6
2020-Jul-12 07:27 223 15.6
2020-Jul-12 07:17 250 15.6
2020-Jul-12 07:07 005 15.6
2020-Jul-12 06:57 358 15.6
2020-Jul-12 06:47 194 15.6
2020-Jul-12 06:36 190 15.6
2020-Jul-12 06:26 209 15.6
2020-Jul-12 06:16 224 15.6
2020-Jul-12 06:06 250 15.6
2020-Jul-12 05:56 146 0 gusting 4 15.6
2020-Jul-12 05:45 010 15.0
2020-Jul-12 05:35 136 15.0
2020-Jul-12 05:26 081 15.0
2020-Jul-12 04:31 091 15.6
2020-Jul-12 04:21 090 15.6
2020-Jul-12 04:11 090 15.6
2020-Jul-12 04:01 106 16.1
2020-Jul-12 03:51 086 16.1
2020-Jul-12 03:41 355 16.1
2020-Jul-12 03:31 233 16.1
2020-Jul-12 03:20 200 16.1
2020-Jul-12 03:10 264 16.1
2020-Jul-12 03:00 089 16.1
2020-Jul-12 02:51 089 16.1
2020-Jul-12 02:41 089 16.1
2020-Jul-12 02:31 089 16.1
2020-Jul-12 02:20 089 15.6
2020-Jul-12 02:10 089 15.6
2020-Jul-12 02:00 010 15.6
2020-Jul-12 01:50 015 15.6
2020-Jul-12 01:40 015 15.0
2020-Jul-12 01:30 044 15.0
2020-Jul-12 01:20 332 15.0
2020-Jul-12 01:10 332 15.0
2020-Jul-12 01:00 332 15.0
2020-Jul-12 00:50 332 15.0
2020-Jul-12 00:39 332 15.0
2020-Jul-12 00:29 332 15.0
2020-Jul-12 00:19 332 15.0
2020-Jul-12 00:10 332 15.0
2020-Jul-12 00:00 332 15.0
2020-Jul-11 23:50 332 15.0
2020-Jul-11 23:39 332 15.6
2020-Jul-11 23:29 332 16.1
2020-Jul-11 23:20 332 16.7
2020-Jul-11 23:10 333 16.7
2020-Jul-11 23:00 333 16.7
2020-Jul-11 22:49 333 17.2
2020-Jul-11 22:39 333 17.8
2020-Jul-11 22:29 333 17.8
2020-Jul-11 22:19 334 17.8
2020-Jul-11 22:09 310 17.2
2020-Jul-11 21:59 310 17.2
2020-Jul-11 21:49 310 17.2
2020-Jul-11 21:39 298 17.2
2020-Jul-11 21:29 298 17.2
2020-Jul-11 21:19 298 17.2
2020-Jul-11 21:09 298 17.2
2020-Jul-11 20:59 296 17.2
2020-Jul-11 20:49 279 17.2
2020-Jul-11 20:39 045 17.2
2020-Jul-11 20:29 289 17.2
2020-Jul-11 20:18 275 17.2
2020-Jul-11 20:08 296 17.2
2020-Jul-11 19:58 311 17.2
2020-Jul-11 19:48 308 17.8
2020-Jul-11 19:38 309 17.8
2020-Jul-11 19:28 316 17.8
2020-Jul-11 19:18 342 17.8
2020-Jul-11 19:08 287 17.2
2020-Jul-11 18:58 287 17.2
2020-Jul-11 18:48 289 17.2
2020-Jul-11 18:38 297 17.2
2020-Jul-11 18:27 298 17.2
2020-Jul-11 18:17 304 16.7
2020-Jul-11 18:07 285 16.7
2020-Jul-11 17:56 285 16.1
2020-Jul-11 17:46 285 16.1
2020-Jul-11 17:36 307 16.1
2020-Jul-11 17:26 289 15.6
2020-Jul-11 17:16 296 15.6
2020-Jul-11 17:06 296 15.6
2020-Jul-11 16:56 296 15.6
2020-Jul-11 16:46 297 15.6
2020-Jul-11 16:36 277 15.6
2020-Jul-11 16:25 276 15.6
2020-Jul-11 16:15 276 15.0
2020-Jul-11 16:06 276 15.0
2020-Jul-11 15:55 294 15.0
2020-Jul-11 15:45 273 14.4
2020-Jul-11 15:34 285 14.4
2020-Jul-11 15:25 289 13.9
2020-Jul-11 15:15 356 13.3
2020-Jul-11 15:05 13.3
2020-Jul-11 14:55 12.8
2020-Jul-11 14:45 12.8
2020-Jul-11 14:35 12.8
2020-Jul-11 14:25 12.2
2020-Jul-11 14:14 12.2
2020-Jul-11 14:05 11.7